Torna al catalogo

SL-14 DEB

AttivoPO
NORAD 17270·DEBRIS·🇷🇺 Russia

Lanciato Dec 18, 1986 da Plesetsk Cosmodrome

Loading…

Prossimi Passaggi (prossime 24 ore)

TLE

AggiornatoSource: Space-Track

Epoca: Sep 14, 2026, 04:34 UTC

1 17270U 86101E   26257.19035807  .00000302  00000-0  21945-3 0  9997
2 17270  82.4364 341.2990 0002045 252.6064 134.0898 13.93486990 13032

Traccia SL-14 DEB in tempo reale con AllMySat

Download on the App Store